Location: Namasale
(1.5000°N, 32.6167°E)
Time: 23:53:24
(UTC+00:00)

Transit 2A - Pass Details

Date: 21 April 2021
Orbit: 602 x 957 km, 66.7° (Epoch: 11 May)

Event Time Altitude Azimuth Distance (km) Brightness Sun altitude
Rises 16:12:58 0° 299° (WNW) 3,130 10.9 -5.7°
Reaches altitude 10° 16:16:57 10° 268° (W) 2,304 10.0 -6.7°
Maximum altitude 16:18:46 12° 247° (WSW) 2,228 9.3 -7.2°
Drops below altitude 10° 16:20:39 10° 227° (SW) 2,392 9.1 -7.6°
Sets 16:25:03 0° 196° (SSW) 3,424 9.4 -8.7°
